Regional Weather Roundup
Issued by NWS Wakefield, VA

Home | Current Version | Previous Version | Text Only | Print | Product List | Glossary Off
Versions: 1 2 3 4 5 6 7 8 9 10 11 12 13 14 15 16 17 18 19 20 21 22 23 24 25 26 27

000
ASUS41 KAKQ 221215
RWRAKQ

REGIONAL WEATHER ROUNDUP
NATIONAL WEATHER SERVICE WAKEFIELD VA
700 AM EST THU FEB 22 2018

Note: "fair" indicates few or no clouds below 12,000 feet with no
significant weather and/or obstructions to visibility. * = Denotes
station may not report precipitation (e.g., rain,snow,etc.),
thunder or fog.

VAZ042-051-052>054-056-221300-
NORTHERN VIRGINIA

CITY           SKY/WX    TMP DP  RH WIND       PRES   REMARKS
WASH NATIONAL  CLOUDY    56  41  57 NE9       30.45R
DULLES         CLOUDY    54  41  61 NE8       30.45R
FORT BELVOIR   CLOUDY    57  41  55 NE6       30.44R
QUANTICO       CLOUDY    58  46  64 NE13      30.44R
FREDERICKSBRG* CLOUDY    60  54  79 E7        30.42R
STAFFORD*      CLOUDY    59  50  71 NE7       30.46S
WARRENTON      CLOUDY    55  45  68 N6        30.43R
CULPEPER*      CLOUDY    56  48  74 N6        30.45R
MANASSAS*      CLOUDY    58  45  62 NE8       30.44R
LEESBURG*      CLOUDY    50  43  76 N12       30.47R
WINCHESTER     CLOUDY    45  36  70 N6        30.49R
FRONT ROYAL*   CLOUDY    48  45  87 N6        30.45S
LURAY*         CLOUDY    52  50  93 NE13      30.43R
$$

VAZ048-049-060>072-079>083-221300-
CENTRAL AND SOUTH CENTRAL VIRGINIA

CITY           SKY/WX    TMP DP  RH WIND       PRES   REMARKS
RICHMOND       FOG       61  61 100 S7        30.41R VSB 1
CHESTERFIELD*  LGT RAIN  61  61 100 S3        30.42R VSB 1/2
PETERSBURG*    NOT AVBL
HANOVER        MOCLDY    60  60 100 S6        30.42R FOG
TAPPAHANNOCK*  FOG       60  60 100 CALM      30.42R VSB 1/2
QUINTON*       CLOUDY    60  60 100 SE3       30.41S FOG
CHARLOTTSVILLE CLOUDY    62  55  77 NE9       30.40S
GORDONSVILLE*  CLOUDY    59  56  89 NE7       30.41R
ORANGE*        CLOUDY    55  52  88 N8        30.43R
LOUISA*        CLOUDY    62  58  87 N5        30.45R
BUMPASS*       CLOUDY    61  60  96 CALM      30.40R
FARMVILLE*     CLOUDY   N/A N/A N/A S3        30.39S
CREWE*         FAIR      62  62 100 CALM      30.40S
FORT PICKETT*  CLOUDY    57  57 100 SE6       30.41S VSB<1/4
CHASE CITY*    CLOUDY    62  62 100 CALM      30.42S
CLARKSVILLE*   CLOUDY    63  63 100 SW9       30.42R
SOUTH HILL*    CLOUDY    60  60 100 S8        30.48S
LAWRENCEVILLE* CLOUDY    60  59  97 S5        30.43R VSB 1/2
EMPORIA*       CLOUDY    61  61 100 S3        30.45S FOG
$$

VAZ088>098-221300-
SOUTHEAST VIRGINIA

CITY           SKY/WX    TMP DP  RH WIND       PRES   REMARKS
NORFOLK        FAIR      63  62  97 SW8       30.44R
VIRGINIA BEACH MOCLDY    64  61  90 SW9       30.43R
NORFOLK NAVAL  NOT AVBL
WEST POINT*    FAIR      63  61  94 S6        30.43R
SALUDA*        CLOUDY    63  63 100 SW6       30.41R
NEWPORT NEWS   MOCLDY    63  61  93 S5        30.43R
LANGLEY AFB    FAIR      64  64 100 SW9       30.43R
FORT EUSTIS    MOCLDY    60  59  98 S5        30.41R
WILLIAMSBURG*  CLOUDY    63  61  94 S6        30.44R
HR EXEC AP*    CLOUDY    64  63  96 SW9       30.45R
FRANKLIN*      CLOUDY    63  62  98 SW7       30.45S
US460-WAKEFLD  CLOUDY    63  63 100 S3        30.43S FOG
$$

VAZ020-022-025-037-045-221300-
WEST CENTRAL AND SOUTHWEST VIRGINIA

CITY           SKY/WX    TMP DP  RH WIND       PRES   REMARKS
STAUNTON*      CLOUDY    56  53  89 N7        30.43R
WAYNESBORO*    CLOUDY    57  56  97 N6        30.41R
HOT SPRINGS VA CLOUDY    58  58 100 S8        30.44R
LYNCHBURG      CLOUDY    63  62  97 SW5       30.40R
DANVILLE       MOCLDY    60  60 100 SW3       30.41S
SOUTH BOSTON*  PTSUNNY   60  58  95 CALM      30.42R
MARTINSVILLE   CLOUDY    63  61  91 SW3       30.43R
ROANOKE        MOCLDY    60  59  96 NE3       30.40R
BLACKSBURG     FAIR      64  60  88 S7        30.42S
DUBLIN*        CLOUDY    64  60  86 S5        30.40S
MARION*        FAIR      63  55  76 S3        30.42R
HILLSVILLE*    CLOUDY    62  60  94 S14G20    30.41S
RICHLANDS*     FAIR      65  54  68 S8        30.37S
WISE*          FAIR      61  55  82 S7        30.38R
ABINGDON*      FAIR      56  54  93 CALM      30.37R
$$

MDZ021>025-VAZ099-100-221300-
SOUTHERN MARYLAND AND THE DELMARVA PENINSULA

CITY           SKY/WX    TMP DP  RH WIND       PRES   REMARKS
PATUXENT RIVER CLOUDY    55  49  80 N5        30.43R
BAY BRIDGE APT CLOUDY    50  43  76 N5        30.45S
LEONARDTOWN    CLOUDY    54  46  76 CALM      30.45R
DOVER          CLOUDY    56  46  69 NE9       30.45S
GEORGETOWN     CLOUDY    57  45  64 E15       30.46R
EASTON         CLOUDY    59  46  63 E5        30.48R
CAMBRIDGE      CLOUDY    59  54  82 VRB6G14   30.43S
SALISBURY      CLOUDY    57  53  86 E10       30.45R
OCEAN CITY     CLOUDY    51  50  96 NE9       30.46R
WALLOPS ISLAND CLOUDY   N/A N/A N/A CALM      30.44R
ACCOMACK*      CLOUDY    65  63  92 SW9       30.42R
$$

NCZ012>017-030>032-221300-
NORTH CENTRAL AND EASTERN NORTH CAROLINA

CITY           SKY/WX    TMP DP  RH WIND       PRES   REMARKS
ROANOKE RAPIDS CLOUDY    63  63 100 S7        30.44S
RALEIGH        CLOUDY    65  64  97 SW10      30.45R
ELIZABETH CITY FOG       63  63 100 S8        30.46R VSB 1/2
AHOSKIE*       CLOUDY    64  64 100 S3        30.45S FOG
EDENTON*       FOG       65  65 100 SW6       30.47R VSB 3/4
CURRITUCK*     FOG       60  59  97 SW5       30.47R VSB 1
KILL DEVIL HLS FOG      N/A N/A N/A CALM      30.46R VSB 3/4
MANTEO         FOG       58  58 100 SW6       30.48R VSB<1/4
CAPE HATTERAS  FAIR      63  63 100 SW7       30.49R FOG
TARBORO*       NOT AVBL
GOLDSBORO      CLOUDY    64  64 100 SW7       30.45R FOG
WASHINGTON     CLOUDY    65  64  97 SW6       30.47S
GREENVILLE     CLOUDY    64  64 100 SW6       30.46R FOG
NEW BERN       FOG       63  63 100 S5        30.48S VSB 1/4
WILMINGTON     FOG       57  57 100 CALM      30.48R VSB 1/4
$$

VAZ048-221300-
ELSEWHERE

CITY           SKY/WX    TMP DP  RH WIND       PRES   REMARKS
HARRISBURG PA  LGT RAIN  45  36  70 N5        30.52S
BALTIMORE      CLOUDY    53  33  46 NE16      30.45S
ANNAPOLIS      CLOUDY    55  40  56 N8        30.45R
ANDREWS AFB    CLOUDY    55  42  61 NE10      30.43S
PHILADELPHIA   CLOUDY    51  36  56 NE13      30.49S
HENDERSON NC   CLOUDY    62  59  91 SW9G17    30.43S
GREENSBORO     CLOUDY    63  63 100 SW9       30.42R
ROCKY MOUNT    CLOUDY    65  64  97 S7        30.46R
$$

VAZ100-221300-
MARINE

STATION/POSITION TIME  TEMP    WIND        PRES    WAVE   SWELL
                       AIR SEA DIR/SP/G            HT/PER HT/PER
                 (UTC) (F)     (DEG/KT/KT) (MB)    (FT/S) (FT/S)
BRANDYWINE LGT   1142   54      80/ 16/ 17 1031.3F
CAPE MAY NJ      1148   53 44   70/ 15/ 23 1030.6S
LEWES DE         1142   48 45   90/ 10/ 13 1031.4R
15NM E FENWICK I 1150   46 42   30/ 12/ 14 1031.5R   2/14   2/14
OCEAN-CITY-INLET 1148   49 45   30/  5/ 10 1031.7R
WACHAPREAGUE VA  1148   58 59  220/  4/  6 1030.2R
THOMAS POINT MD  1200   51 41   20/  5/ 14   N/A
GOOSES REEF MD   1050   46      20/ 12/ 14 1023.9
COVE POINT MD    1148   46     350/ 13/ 14 1031.2R
SOLOMONS ISLAND  1148   54 43  360/  6/  7 1030.1R
BISHOPS HEAD MD  1148   54 50   50/  6/  6 1030.6R
PINEY POINT MD   1148           60/  5/  6   N/A
CAMBRIDGE MD     1148   56 49              1031.6R
LEWISETTA VA     1148   54 53  110/  3/  3 1030.1R
RAPPAHANNOCK LGT 1148          180/ 13/ 13 1030.8R
YORK RVR RNG VA  1148   57     220/  8/ 10 1030.8R
YORKTOWN VA      1148          210/ 11/ 13   N/A
DOMINION TERM VA 1148   59     220/  4/  5 1030.9R
KIPTOPEKE VA     1148          170/  5/  9   N/A
CAPE HENRY VA    1148   65     200/  5/  8   N/A
S CRANEY ISL VA  1148   62     200/  6/  7 1030.5R
CAPE HENRY BUOY  1200      45                N/A     2/12   2/12
CAPE CHARLES BUO 1151      46                N/A     2/13   2/13
64NM E OF VA BCH 1150   53 50  220/  6/  8 1032.1R   4/14   3/14
DUCK PIER NC     1148   61 44  200/  8/ 10 1031.2R
44100 DUCK FRF   1145      47                N/A     3/13   2/13
44056 DUCK FRF   1200      47                N/A     3/14   2/14
OREGON INLET NC  1142   60 63  190/  6/  7 1031.9R
HATTERAS NC      1148          240/  7/  9   N/A
DIAMOND SHLS NC  1150   70 68  210/ 10/ 12 1032.7R   4/15   3/15
CAPE LOOKOUT NC  1200          210/  6/  8 1032.6R
$$




USA.gov is the U.S. government's official web portal to all federal, state and local government web resources and services.